Norwich, United Kingdom

3:30 AM BST on October 17, 2017 (GMT +0100)
Norwich

Weather History for EGSH - November, 2012

Change the Weather History Date:

Friday, November 16, 2012

  Actual Average Record
Temperature  
Mean Temperature 44 °F -  
Max Temperature 46 °F 46 °F 60 °F (1997)
Min Temperature 41 °F 37 °F 32 °F (1996)
Degree Days  
Heating Degree Days 22    
Moisture  
Dew Point 41 °F    
Average Humidity 95    
Maximum Humidity 100    
Minimum Humidity 87    
Precipitation  
Precipitation 0.00 in - - ()
Sea Level Pressure  
Sea Level Pressure 29.96 in    
Wind  
Wind Speed 6 mph ()    
Max Wind Speed 10 mph    
Max Gust Speed -    
Visibility 2.2 miles    
Events Fog , Rain    
Averages and records for this station are not official NWS values.
T = Trace of Precipitation, MM = Missing Value Source: Averaged Metar Reports

Daily Weather History Graph

Daily Weather History Graph

Search for Another Location

Airport or City:

Trip Planner

Search our weather history database for the weather conditions in past years. The results will help you decide how hot, cold, wet, or windy it might be!

Date:

Astronomy

Nov. 16, 2012 Rise Set
Actual Time 7:19 AM GMT 3:59 PM GMT
Civil Twilight 6:40 AM GMT 4:37 PM GMT
Nautical Twilight 5:58 AM GMT 5:19 PM GMT
Astronomical Twilight 5:18 AM GMT 5:59 PM GMT
Moon 10:08 AM GMT (11/16) 6:34 PM GMT (11/16)
Length of Visible Light 9h 56m
Length of Day
8h 39m
Waxing Crescent, 10% of the Moon is Illuminated
Nov 16
Waxing Crescent
Nov 20
First Quarter
Nov 28
Full
Dec 6
Last Quarter
Dec 13
New

Hourly Weather History & Observations

Time (GMT) Temp. Windchill Dew Point Humidity Pressure Visibility Wind Dir Wind Speed Gust Speed Precip Events Conditions
12:20 AM 42.8 °F 40.1 °F 42.8 °F 100% 30.09 in 2.5 mi SSW 4.6 mph - N/A   Overcast
12:50 AM 41.0 °F 36.4 °F 41.0 °F 100% 30.06 in 2.8 mi SSW 6.9 mph - N/A   Overcast
1:20 AM 41.0 °F 37.1 °F 41.0 °F 100% 30.06 in - SSW 5.8 mph - N/A   Overcast
1:50 AM 41.0 °F 37.1 °F 41.0 °F 100% 30.06 in - SW 5.8 mph - N/A   Overcast
2:20 AM 41.0 °F 39.0 °F 41.0 °F 100% 30.06 in - Variable 3.5 mph - N/A   Mostly Cloudy
2:50 AM 41.0 °F 38.0 °F 41.0 °F 100% 30.06 in 3.1 mi SSW 4.6 mph - N/A   Mostly Cloudy
3:20 AM 41.0 °F 38.0 °F 41.0 °F 100% 30.06 in 3.1 mi South 4.6 mph - N/A   Overcast
3:50 AM 41.0 °F 38.0 °F 39.2 °F 93% 30.04 in 3.1 mi SSW 4.6 mph - N/A   Haze
4:20 AM 41.0 °F 37.1 °F 39.2 °F 93% 30.04 in 3.7 mi South 5.8 mph - N/A   Mostly Cloudy
4:50 AM 41.0 °F 36.4 °F 39.2 °F 93% 30.04 in 3.7 mi South 6.9 mph - N/A   Mostly Cloudy
5:20 AM 41.0 °F 36.4 °F 39.2 °F 93% 30.04 in 3.1 mi South 6.9 mph - N/A   Haze
5:50 AM 41.0 °F 35.8 °F 37.4 °F 87% 30.04 in 3.1 mi South 8.1 mph - N/A   Haze
6:20 AM 41.0 °F 35.8 °F 37.4 °F 87% 30.04 in 3.1 mi South 8.1 mph - N/A   Haze
6:50 AM 41.0 °F 36.4 °F 37.4 °F 87% 30.04 in 2.8 mi South 6.9 mph - N/A   Haze
7:20 AM 41.0 °F 36.4 °F 37.4 °F 87% 30.04 in 3.1 mi South 6.9 mph - N/A   Haze
7:50 AM 41.0 °F 35.8 °F 39.2 °F 93% 30.04 in 3.7 mi South 8.1 mph - N/A   Mostly Cloudy
8:20 AM 41.0 °F 36.4 °F 39.2 °F 93% 30.04 in 3.7 mi SSW 6.9 mph - N/A   Mostly Cloudy
8:50 AM 41.0 °F 36.4 °F 39.2 °F 93% 30.01 in 3.7 mi South 6.9 mph - N/A   Mostly Cloudy
9:20 AM 41.0 °F 36.4 °F 39.2 °F 93% 30.01 in 3.7 mi South 6.9 mph - N/A   Mostly Cloudy
9:50 AM 41.0 °F 37.1 °F 39.2 °F 93% 30.01 in 2.8 mi SSW 5.8 mph - N/A   Haze
10:20 AM 42.8 °F 39.3 °F 39.2 °F 87% 30.01 in 2.5 mi SSW 5.8 mph - N/A   Haze
10:50 AM 41.0 °F 36.4 °F 39.2 °F 93% 30.01 in 2.5 mi SSW 6.9 mph - N/A   Haze
11:20 AM 41.0 °F 35.2 °F 39.2 °F 93% 29.98 in 2.8 mi SSW 9.2 mph - N/A   Haze
11:50 AM 42.8 °F 38.0 °F 39.2 °F 87% 29.98 in 2.8 mi SW 8.1 mph - N/A   Haze
12:20 PM 42.8 °F 38.6 °F 39.2 °F 87% 29.98 in 2.8 mi SSW 6.9 mph - N/A   Haze
12:50 PM 42.8 °F 37.5 °F 39.2 °F 87% 29.98 in 2.8 mi SW 9.2 mph - N/A   Haze
1:20 PM 42.8 °F 38.0 °F 39.2 °F 87% 29.95 in 2.8 mi SW 8.1 mph - N/A   Haze
1:50 PM 41.0 °F 35.8 °F 39.2 °F 93% 29.95 in 2.8 mi SSW 8.1 mph - N/A   Haze
2:20 PM 41.0 °F 36.4 °F 39.2 °F 93% 29.95 in 2.8 mi SW 6.9 mph - N/A   Haze
2:50 PM 41.0 °F 37.1 °F 41.0 °F 100% 29.92 in 2.8 mi SSW 5.8 mph - N/A   Haze
3:20 PM 42.8 °F 40.1 °F 41.0 °F 93% 29.92 in 2.5 mi SSW 4.6 mph - N/A   Haze
3:50 PM 42.8 °F 39.3 °F 41.0 °F 93% 29.92 in 2.2 mi South 5.8 mph - N/A   Haze
4:20 PM 42.8 °F 40.1 °F 41.0 °F 93% 29.92 in 1.7 mi South 4.6 mph - N/A   Mostly Cloudy
4:50 PM 42.8 °F 38.0 °F 41.0 °F 93% 29.92 in 1.9 mi South 8.1 mph - N/A   Mostly Cloudy
5:20 PM 42.8 °F 38.6 °F 41.0 °F 93% 29.89 in 1.9 mi South 6.9 mph - N/A   Mostly Cloudy
5:50 PM 42.8 °F 38.0 °F 41.0 °F 93% 29.89 in 1.9 mi South 8.1 mph - N/A   Mostly Cloudy
6:20 PM 42.8 °F 39.3 °F 42.8 °F 100% 29.89 in 1.6 mi SSE 5.8 mph - N/A   Mostly Cloudy
6:50 PM 42.8 °F 38.6 °F 42.8 °F 100% 29.89 in 1.6 mi South 6.9 mph - N/A   Mostly Cloudy
7:20 PM 42.8 °F 38.6 °F 42.8 °F 100% 29.86 in 0.8 mi Variable 6.9 mph - N/A Rain Light Rain
7:50 PM 42.8 °F 38.6 °F 42.8 °F 100% 29.86 in 0.9 mi SSE 6.9 mph - N/A Rain Light Rain
8:20 PM 44.6 °F 43.1 °F 44.6 °F 100% 29.86 in 0.6 mi Variable 3.5 mph - N/A Fog Fog
8:50 PM 44.6 °F 41.4 °F 44.6 °F 100% 29.83 in 0.3 mi SE 5.8 mph - N/A Fog Fog
9:20 PM 44.6 °F 41.4 °F 44.6 °F 100% 29.83 in 0.1 mi SSE 5.8 mph - N/A Fog Fog
9:50 PM 44.6 °F 43.1 °F 44.6 °F 100% 29.83 in 0.1 mi Variable 3.5 mph - N/A Fog Fog
10:20 PM 44.6 °F 40.7 °F 44.6 °F 100% 29.80 in 0.1 mi SSE 6.9 mph - N/A Fog Fog
10:50 PM 46.4 °F 41.9 °F 46.4 °F 100% 29.80 in 0.2 mi SSE 9.2 mph - N/A Fog Fog
11:20 PM 46.4 °F 41.9 °F 46.4 °F 100% 29.77 in 0.3 mi SSE 9.2 mph - N/A Fog Fog
11:50 PM 46.4 °F 41.5 °F 46.4 °F 100% 29.77 in 0.3 mi South 10.4 mph - N/A Fog Fog